Flag for Germany Weather past 2 weeks in Bad Hersfeld, Hesse, Germany

Now
66 °F

Passing clouds.


Feels Like: 66 °F
Forecast: 51 / 81 °F
Wind: 3 mph from North

Location: Fritzlar Airport

Current Time: Jul 31, 2014 at 10:14:03 AM

Latest Report: Jul 31, 2014 at 9:20 AM


Visibility: N/A

Pressure: 30.01 "Hg

Humidity: 73%

Dew point: 57 °F

Location of Bad HersfeldLocation

Historic Weather in Bad Hersfeld — Graph

°F

Bad Hersfeld temperature yesterday

Maximum temperature yesterday: 72 °F (at 6:20 PM)
Minimum temperature yesterday: 63 °F (at 10:20 PM)
Average temperature yesterday: 66 °F

Past Weeks' High & Low Weather Summary

 TemperatureHumidityPressure
High88 °F (Jul 19, 2:20 PM)100% (Jul 25, 5:20 AM)30.21 "Hg (Jul 25, 5:20 AM)
Low57 °F (Jul 17, 4:20 AM)33% (Jul 19, 3:20 PM)29.74 "Hg (Jul 29, 5:00 PM)
Average70 °F75%29.96 "Hg
* Reported Jul 16 8:20 AM — Jul 31 8:20 AM, Bad Hersfeld, Weather by CustomWeather, © 2014

Note: Actual official high and low records may vary slightly from our data, if they occured in-between our weather recording intervals... More about our weather records

Advertising

Bad Hersfeld weather history for previous 24 hours

 ConditionsComfort  
Time TempWeatherWind HumidityBarometerVisibility
8:20 AM
Jul 31
63 °FPassing clouds.5 mph83%30.01 "HgN/A
7:20 AM59 °FPassing clouds.2 mph94%30.01 "HgN/A
6:20 AM57 °FPassing clouds.5 mph94%30.01 "HgN/A
5:20 AM59 °FPassing clouds.5 mph88%29.98 "HgN/A
4:20 AM57 °FPassing clouds.5 mph94%29.98 "HgN/A
3:20 AM57 °FCool.5 mph94%29.98 "HgN/A
2:20 AM61 °FCool.2 mph88%29.95 "HgN/A
1:20 AM63 °FPartly cloudy.1 mph88%29.95 "HgN/A
12:20 AM63 °FPassing clouds.5 mph88%29.95 "HgN/A
11:20 PM
Jul 30
63 °FPassing clouds.2 mph88%29.95 "HgN/A
10:20 PM63 °FPassing clouds.6 mph88%29.95 "HgN/A
9:20 PM66 °FPartly sunny.3 mph78%29.92 "HgN/A
8:20 PM70 °FPartly sunny.3 mph69%29.92 "HgN/A
7:20 PM70 °FPartly sunny.7 mph64%29.89 "HgN/A
6:20 PM72 °FBroken clouds.6 mph69%29.89 "HgN/A
5:20 PM70 °FPartly sunny.10 mph69%29.89 "HgN/A
4:20 PM68 °FPartly sunny.10 mph73%29.89 "HgN/A
3:20 PM68 °FPartly sunny.8 mph73%29.89 "HgN/A
2:50 PM66 °FLight rain. Broken clouds.6 mph88%29.86 "Hg5 mi
2:20 PM64 °FDrizzle. Mostly cloudy.8 mph94%29.86 "Hg4 mi
1:50 PM64 °FDrizzle. Mostly cloudy.9 mph88%29.86 "Hg4 mi
1:20 PM66 °FDrizzle. Mostly cloudy.9 mph83%29.86 "Hg4 mi
1:03 PM66 °FDrizzle. Mostly cloudy.8 mph83%29.86 "Hg4 mi
12:20 PM66 °FMostly cloudy.8 mph88%29.83 "HgN/A
11:45 AM66 °FPartly sunny.8 mph88%29.83 "HgN/A
11:20 AM66 °FOvercast.7 mph88%29.83 "Hg6 mi
10:49 AM64 °FDrizzle. Low clouds.8 mph94%29.83 "Hg4 mi
10:20 AM64 °FLow clouds.9 mph94%29.83 "Hg6 mi
Weather by CustomWeather, © 2014

See weather overviewHow to use our weather pages